EST,Max TemperatureF,Mean TemperatureF,Min TemperatureF,Max Dew PointF,MeanDew PointF,Min DewpointF,Max Humidity, Mean Humidity, Min Humidity, Max Sea Level PressureIn, Mean Sea Level PressureIn, Min Sea Level PressureIn, Max VisibilityMiles, Mean VisibilityMiles, Min VisibilityMiles, Max Wind SpeedMPH, Mean Wind SpeedMPH, Max Gust SpeedMPH,PrecipitationIn, CloudCover, Events, WindDirDegrees
2012-11-1,59,48,37,30,24,16,75,40,23,29.90,29.84,29.79,10,10,10,13,6,20,0.00,0,,268
2012-11-2,69,51,33,36,28,18,81,42,23,29.98,29.90,29.83,10,10,10,21,6,29,0.00,1,,281
2012-11-3,69,50,32,37,33,30,100,55,25,30.11,30.03,29.99,10,10,10,8,2,,0.00,0,,181
2012-11-4,60,52,44,43,37,34,76,59,42,30.03,29.98,29.94,10,10,2,9,5,,0.00,2,,31
2012-11-5,59,48,37,43,33,30,81,58,34,30.10,30.05,30.00,10,10,7,8,4,,0.00,1,,45
2012-11-6,42,40,35,34,32,32,87,74,66,30.12,30.04,29.95,10,10,7,13,6,18,0.00,6,Rain,16
2012-11-7,51,43,35,37,34,32,87,76,54,29.97,29.92,29.85,10,9,7,9,3,,0.00,4,Rain,290
2012-11-8,62,48,35,34,27,19,81,50,19,30.16,30.08,29.98,10,10,10,13,6,18,0.00,0,,302
2012-11-9,66,48,30,32,29,27,93,57,23,30.28,30.22,30.16,10,10,10,6,1,,0.00,0,,214
2012-11-10,69,50,32,36,31,27,100,56,20,30.38,30.31,30.26,10,10,10,8,1,,0.00,0,,165
2012-11-11,69,50,32,52,40,32,100,67,40,30.48,30.41,30.37,10,10,7,10,2,20,0.00,2,,165
2012-11-12,69,60,51,59,55,48,100,82,60,30.39,30.28,30.18,10,9,4,10,2,,0.02,5,Rain,188
2012-11-13,59,48,35,59,38,28,100,66,31,30.39,30.29,30.19,10,9,4,12,6,,0.14,3,Rain,9
2012-11-14,50,41,32,30,28,27,93,64,43,30.48,30.40,30.33,10,10,3,15,7,22,0.00,2,,24
2012-11-15,50,41,32,34,31,28,93,72,47,30.34,30.30,30.24,10,9,3,13,6,17,0.41,4,Rain,22
2012-11-16,55,42,30,34,30,27,93,69,36,30.39,30.30,30.27,10,10,7,8,3,,0.00,0,,33
2012-11-17,55,44,33,30,26,23,87,54,29,30.48,30.43,30.38,10,10,10,20,8,28,0.00,0,,24
2012-11-18,57,50,42,39,34,23,66,56,43,30.45,30.40,30.35,10,10,4,20,11,25,0.00,5,,21
2012-11-19,59,50,41,45,41,36,93,68,58,30.35,30.28,30.21,10,10,7,14,9,23,0.00,5,,21
2012-11-20,59,48,37,41,39,36,100,72,45,30.21,30.13,30.07,10,10,5,7,3,,0.00,1,,19
2012-11-21,64,48,32,41,32,27,100,65,26,30.19,30.14,30.09,10,9,2,9,3,,0.00,0,,31
2012-11-22,64,48,33,32,30,27,93,57,26,30.28,30.21,30.17,10,10,10,7,2,,0.00,0,,19
2012-11-23,64,47,30,41,33,28,93,61,30,30.17,30.04,29.92,10,10,10,13,2,18,0.00,1,,256
2012-11-24,51,42,32,28,21,12,75,46,26,30.12,30.04,29.97,10,10,10,14,6,16,0.00,0,,307
2012-11-25,51,36,21,21,19,18,93,51,26,30.19,30.10,30.04,10,10,10,12,2,16,0.00,0,,191
2012-11-26,62,45,28,28,23,19,80,46,20,30.21,30.14,30.08,10,10,10,7,1,,0.00,1,,161
2012-11-27,53,48,44,41,33,27,81,54,38,30.23,30.14,30.09,10,10,2,8,4,,0.00,8,Rain,86
2012-11-28,53,43,33,41,32,27,81,62,35,30.38,30.31,30.22,10,9,2,8,3,,0.00,3,,33
2012-11-29,55,42,28,36,30,23,87,66,44,30.47,30.40,30.35,10,10,10,9,3,,0.00,0,,138
2012-11-30,60,44,28,41,35,27,100,72,39,30.40,30.34,30.27,10,9,5,12,2,21,0.00,0,,198